THOR AGENA D R/B, 815

Orbit data source: Space-Track

THOR AGENA D R/B, 815 is space debris in SSO originally from a launch on Thu, 18 Jun 1964 UTC launched from the Air Force Western Test Range (AFWTR). Debris objects in space refer to the collection of defunct objects orbiting the Earth. Examples of debris include non-operational satellites, rocket bodies, and fragments generated from explosions, collisions, or faulty payload assembly.

Loading next visibility...
Identifier
815, 1964-031C
Orbit
SSO
Country
Flag of USUS
Related business
Manufacturer
LMSC
Mission
Spacecraft
Bus & Motor
AGENA D, Unknown motor
Mass
600 kg wet, 600 kg dry
Launch date (UTC)
1964-06-18 (62 years ago)
Launch vehicle
Unknown
Launch site
Air Force Western Test Range (AFWTR)
Object type
Payload
Rocket body
Debris
Shape & HBR
Unknown
Radar Cross Section
Large (>1 m²)

Expand to show TLE details & history
Last TLE update: 12 hours ago

TLE from 12 hours ago
0 THOR AGENA D R/B
1   815U 64031C   26129.45542318  .00000121  00000-0  69861-4 0  9998
2   815  99.8198  74.9619 0012298  50.0076 310.2179 14.28492157215471
Epoch: 2026-05-09T10:55Z
TLE epoch observation values (Epoch: 2026-05-09T10:55:48.562Z)
Latitude
-0.00006°
Longitude
43.73696°
Altitude
793.971 km
Speed
7.46 km/s
True Right ascension
04h 59m 50s
True Declination
0° 00' 00"
Sunlit
Object was in daylight at epoch
Visualization orbit readout
Latitude
Unknown
Longitude
Unknown
Altitude
Unknown
Speed
Unknown
Apparent Right ascension
Unknown
Apparent Declination
Unknown
Sunlit
N/A
Visualization observer readout
Local Sidereal Time
06:41:36
Azimuth
Unknown
Elevation
Unknown
Doppler factor
Unknown
Orbital elements
Apogee altitude
802.8 km
Perigee altitude
785.159 km
Semi-major axis
7,172.116 km
Eccentricity
0.00123
Inclination
99.8198°
RAAN
74.9619°
Arg. of periapsis
50.0076°
True anomaly
310.11018°
Mean anomaly
310.2179°
Eccentric anomaly
310.16405°
Mean motion
3.57332 °/min
Orbital period
100.75 mins
BSTAR
0.000069861
Loading maneuver chart data...
Computing Atmospheric mass density...
Loading historical data...
Loading historical data...
Loading historical data...
Loading historical data...
Loading historical data...
Loading historical data...
Loading historical data...
Other satellites on launch #31 in the year 1964 (1964-06-18 UTC)

Documentation

Showing up to 5 results
|